Location: Cactus School
(34.5700°N, 118.0931°W)
Time: 21:32:23
(UTC-07:00)

Vanguard 2 - Pass Details

Date: 29 April 2024
Orbit: 553 x 2914 km, 32.9° (Epoch: 18 May)

Event Time Altitude Azimuth Distance (km) Brightness Sun altitude
Exits shadow 04:16:00 - 279° (W) 5,277 11.4 -20.5°
Reaches altitude 10° 04:17:19 10° 279° (W) 4,988 11.2 -20.3°
Maximum altitude 04:32:49 70° 200° (SSW) 2,992 10.2 -17.7°
Drops below altitude 10° 04:50:16 10° 121° (ESE) 5,524 12.3 -14.6°
Sets 04:54:14 0° 119° (ESE) 6,367 12.7 -13.9°
